Regional Weather Roundup
Issued by NWS Newport/Morehead, NC

Current Version | Previous Version | Text Only | Print | Product List | Glossary Off
Versions: 1 2 3 4 5 6 7 8 9 10 11 12 13 14 15 16 17 18 19 20 21 22 23 24 25 26 27 28 29 30 31 32 33 34 35 36 37 38 39 40 41 42 43 44 45 46 47 48 49 50

000
ASUS42 KMHX 191212
RWRMHX
WEATHER ROUNDUP FOR EASTERN NORTH CAROLINA
NATIONAL WEATHER SERVICE NEWPORT/MOREHEAD CITY NC
800 AM EDT SUN APR 19 2015

NOTE: "FAIR" INDICATES FEW OR NO CLOUDS BELOW 12,000 FEET
WITH NO SIGNIFICANT WEATHER AND/OR OBSTRUCTIONS TO VISIBILITY

NCZ015>017-031-032-045>047-102-103-191300-
NORTH COAST

CITY           SKY/WX    TMP DP  RH WIND       PRES   REMARKS
EDENTON        PTSUNNY   59  59  98 E5        30.05R
ELIZABETH CITY MOSUNNY   61  59  93 NE13      30.08R
KITTY HAWK     FOG       55  55 100 NE7       30.07R VSB 1/2
MANTEO         PTSUNNY   60  59  96 E6        30.06R

$$

NCZ045>047-081-094-103-104-191300-
CENTRAL COAST

CITY           SKY/WX    TMP DP  RH WIND       PRES   REMARKS
FRISCO         MOSUNNY   63  61  93 NE5       30.04R
SWANQUARTER      N/A     66 N/A N/A NE5       30.00S

$$

NCZ095-097-098-100-101-191300-
SOUTHERN COAST

CITY           SKY/WX    TMP DP  RH WIND       PRES   REMARKS
BEAUFORT       CLOUDY    68  66  93 NE5       30.02R
CEDAR ISLAND     N/A     68 N/A N/A NE6G14    30.06S
JACKSONVILLE   PTSUNNY   67  64  90 E7        30.00S
PINEY ISLAND   CLOUDY   N/A N/A N/A E8        30.02R
WILMINGTON     CLOUDY    67  65  93 E5        30.00R


$$

NCZ011>013-027>030-043-044-078>080-089-090>093-098-191300-
COASTAL PLAIN

CITY           SKY/WX    TMP DP  RH WIND       PRES   REMARKS
AHOSKIE        CLOUDY    60  59  97 CALM      30.05S
CLINTON        PTSUNNY   65  65  98 CALM      30.02R
ELIZABETHTOWN  CLOUDY    64  64 100 CALM      30.00R
GOLDSBORO      CLOUDY    65  64  98 E6        30.01R FOG
GREENVILLE     RAIN      64  64 100 E3        30.05R VSB 1/4
HAVELOCK       CLOUDY    67  65  93 NE8       30.03R
KENANSVILLE    PTSUNNY   64  64  97 CALM      30.03R FOG
KINSTON        FOG       66  66 100 E3        30.03R VSB 1/4
NEW BERN       CLOUDY    67  65  93 E7        30.04S
RICHLANDS      CLOUDY    64  63  94 N6        30.02R
ROCKY MOUNT    FOG       65  64  97 CALM      30.03R VSB 1/4
WASHINGTON     PTSUNNY   63  63  98 CALM      30.04R FOG
WHITEVILLE     CLOUDY    65  64  93 NE3       29.99R

$$

AMZ130-135-150-152-154-156-158-170-250-252-270-ANZ085-086-088-633-658-670-191300-
MARINE OBSERVATIONS

STATION/POSITION TIME  TEMP    WIND        PRES    WAVE   SWELL
                       AIR SEA DIR/SP/G            HT/PER HT/PER
                 (UTC) (F)     (DEG/KT/KT) (MB)    (FT/S) (FT/S)
CHESAPEAKE LIGHT 1100   54      50/ 20/ 21 1018.7
64 E VA BEACH    1150   61 56   40/ 16/ 17 1017.6    3/ 8   3/ 8
DUCK             1100   53 56   30/  4/  5 1016.2
2 E DUCK         1111      55                N/A     3/ 7   2/13
10 NE DUCK       NOT AVBL
OREGON INLET     1100   55 60   20/  5/  6 1016.9
HATTERAS CG      1100   65 66   50/  5/  7 1016.1
DIAMOND BUOY     1150   72 76   70/ 10/ 12 1016.7    4/12   3/12
CAPE LOOKOUT     1200   67      60/  5/  6 1016.1
BEAUFORT LAB     1100   67 64   20/  3/  4 1015.1
27 SE WRIGHTSVLE 1100   70 72  100/ 10/ 14   N/A
5 SE WRIGHTSVLE  1100   66 65   70/  8/ 10 1015.2
225 S CAPE HAT   1150   72 75   80/ 10/ 12 1015.9    4/12   3/12
41 SE CHARLESTON 1150   74 75   70/  8/ 10 1013.9    3/ 8   3/ 8

$$



USA.gov is the U.S. government's official web portal to all federal, state and local government web resources and services.